パンスターズ彗星

C/2020 N1 ( PanSTARRS )

English version
Home page
Updated on July 2, 2021

---------------------------------------------------------------------

・ プロフィール

発見日 2020年7月3日
発見光度 20.7等
発見者 Pan-STARRS 1 telescope (Haleakala)

・ 写真集

・ 軌道要素

Epoch 2021 Mar. 7.0 TT = JDT 2459280.5
T 2021 Mar. 12.22519 TT                                 Rudenko
q   1.3206987            (2000.0)            P               Q
z  -0.0004261      Peri.  186.77045     -0.27298035     -0.82905129
 +/-0.0000021      Node   279.98197     +0.90424388     -0.04797152
e   1.0005628      Incl.   29.70358     +0.32836678     -0.55711102
From 807 observations 2020 July 1-2021 Apr. 7, mean residual 0".8.

・ 星図

・ 光度変化

        m1 = 14.0 + 5 logΔ + 7.0 log r(t + 65)

---------------------------------------------------------------------

軌道要素はM.P.E.C. 2021-J28に掲載されたものです。
星図はステラナビゲータ Ver.10 (アストロアーツ) で作成したものです。
光度グラフはComet for Windowsで作成したものです。

---------------------------------------------------------------------

Copyright(C) Seiichi Yoshida (comet@aerith.net). All rights reserved.